Power by www.initrio-led.comwww.initrio-led.comwww.initrio-led.comwww.initrio-led.comwww.initrio-led.com

HONDA HRV CLUB - ศูนย์กลางสถิติ

สถิติทั่วไป

จำนวนสมาชิกทั้งหมด:
231
จำนวนตอบกระทู้ทั้งหมด:
8923
จำนวนหัวข้อทั้งหมด:
392
จำนวนหมวดหมู่ทั้งหมด:
14
ผู้ใช้งานที่ออนไลน์:
9
ออนไลน์มากที่สุด:
175 - 15 ก.ค. 2016, 16:26:46 น.
ออนไลน์วันนี้:
9
เพจวิวทั้งหมด:
407619
สมาชิกเฉลี่ยต่อวัน:
0.88
ตอบกระทู้เฉลี่ยต่อวัน:
11.35
หัวข้อเฉลี่ยต่อวัน:
0.47
จำนวนบอร์ดทั้งหมด:
30
สมาชิกล่าสุด:
chonnikankz
ออนไลน์เฉลี่ยต่อวัน:
22.78
อัตราส่วนระหว่างชายกับหญิง:
2.6:1
เฉลี่ยเพจวิวต่อวัน:
469.61

หัวข้อยอดนิยม 10 หัวข้อแรก (ผู้ตอบสูงสุด)

[[ ขาย ]] จำหน่ายถาดท้ายรถยนต์ HONDA HRV และผ้ายางเข้ารูป ราคาโรงงาน !!!!!!
1591
[รับซื้อรถมือสอง]ราคาสูงที่สุด ทุกรุ่นทุกยี่ห้อ คุยง่ายพร้อมบริการถึงที่ครับ
922
!!!! แรงสุดทั่วราชอาณาจักร ดูแคมเปญสุดเล้าใจพร้อมดาวน์โหลดโปรชัวร์ได้ที่นี้ !!!!
489
"พรมกระดุม พรมดักฝุ่น สูตรดั้งเดิม ทนมากกกก Mr.CARPET"
431
!!! รับซื้อ รถ สด แรง เร็ว IN AND OUT car ซื้อทุกรุ่น ทุกยี่ห้อ พร้อมโปรโมชั่นรถ
423
***Saw Palmetto สำหรับชาว HR-V ที่มีปัญหาผมร่วงผมบาง ไม่ส่งผลต่อสมรรถภาพทางเพศ**
387
ขายผ้าคลุมรถHRV กันน้ำ กันแดดคุณภาพเยี่ยม [รับสั่งตัดงานพิเศษ ทุกแบบ] พร้อมส่ง
290
พรมปูพื้นรถยนต์เข้ารูป ผ้ายางปูพื้นรถ ถาดท้าย พรม5D คิ้วกันสาดเข้ารูปเพียง600-!!
276
ล้อป้ายแดง Hrv 17 พร้อมยาง
257
ล้างเเอร์รถยนต์ 500 บาท ซอยหลวงพ่อโต บางพลี พร้อมบริการ ซ่อมเเอร์ ขัดไฟหน้า เเบต
234

หัวข้อยอดนิยม 10 หัวข้อแรก (ผู้อ่านสูงสุด)

[[ ขาย ]] จำหน่ายถาดท้ายรถยนต์ HONDA HRV และผ้ายางเข้ารูป ราคาโรงงาน !!!!!!
22119
ของแต่ง HR-V มาแว้ว คลิกเลย!!!!!!!!!!!!!! ราคากันเอง ฟรีติดตั้ัง
10902
พรมปูพื้นรถยนต์เข้ารูป ผ้ายางปูพื้นรถ ถาดท้าย พรม5D คิ้วกันสาดเข้ารูปเพียง600-!!
9003
ล้อ ยาง max ใหม่หรือป้ายแดง HONDA HRV หลายชุด ขายถูก ติดตั้งหรือส่งทั่วไทยคร้าบ
7143
"พรมกระดุม พรมดักฝุ่น สูตรดั้งเดิม ทนมากกกก Mr.CARPET"
5751
ล้างเเอร์รถยนต์ 500 บาท ซอยหลวงพ่อโต บางพลี พร้อมบริการ ซ่อมเเอร์ ขัดไฟหน้า เเบต
4825
!!!! แรงสุดทั่วราชอาณาจักร ดูแคมเปญสุดเล้าใจพร้อมดาวน์โหลดโปรชัวร์ได้ที่นี้ !!!!
4505
[รับซื้อรถมือสอง]ราคาสูงที่สุด ทุกรุ่นทุกยี่ห้อ คุยง่ายพร้อมบริการถึงที่ครับ
4088
!!! รับซื้อ รถ สด แรง เร็ว IN AND OUT car ซื้อทุกรุ่น ทุกยี่ห้อ พร้อมโปรโมชั่นรถ
3683
***Saw Palmetto สำหรับชาว HR-V ที่มีปัญหาผมร่วงผมบาง ไม่ส่งผลต่อสมรรถภาพทางเพศ**
3655

เริ่มหัวข้อใหม่มากที่สุด

ออนไลน์นานที่สุด

้hairman
1วัน 5ชั่วโมง 36นาที
montien
18ชั่วโมง 47นาที
salestray
18ชั่วโมง 26นาที
mr_carpet
17ชั่วโมง 54นาที
MEE-GUSTO
13ชั่วโมง 54นาที
Teetawat
13ชั่วโมง 52นาที
aircardok
13ชั่วโมง 34นาที
Admin ThailandHRVClub
13ชั่วโมง 1นาที
ostylegolfzz
11ชั่วโมง 35นาที
pengeng
11ชั่วโมง 34นาที

รายละเอียดระบบย้อนหลัง

สรุปประจำเดือน หัวข้อใหม่ ตอบกระทู้ใหม่ สมาชิกใหม่ ออนไลน์มากที่สุด เพจวิว
* 2017 120 3709 94 109 184984
สิงหาคม 2017 27 395 19 48 19974
กรกฎาคม 2017 20 472 20 24 11154
มิถุนายน 2017 13 489 10 21 19526
พฤษภาคม 2017 6 227 0 19 8523
2017-05-11 1 6 0 11 593
2017-05-12 1 8 0 9 548
2017-05-13 0 4 0 12 1174
2017-05-14 0 7 0 13 181
2017-05-15 0 5 0 13 474
2017-05-16 0 12 0 13 343
2017-05-17 0 10 0 13 1307
2017-05-18 0 8 0 14 240
2017-05-19 1 11 0 10 170
2017-05-20 0 8 0 15 364
2017-05-21 0 20 0 15 213
2017-05-22 0 13 0 16 818
2017-05-23 1 10 0 9 612
2017-05-24 0 8 0 18 183
2017-05-25 0 9 0 13 214
2017-05-26 0 10 0 12 162
2017-05-27 1 10 0 11 113
2017-05-28 0 8 0 18 192
2017-05-29 1 16 0 19 199
2017-05-30 0 22 0 14 195
2017-05-31 0 22 0 13 228
เมษายน 2017 11 223 5 109 13439
มีนาคม 2017 15 719 10 74 42902
กุมภาพันธ์ 2017 12 574 18 95 27236
2017-02-01 0 20 0 18 569
2017-02-02 0 22 0 18 267
2017-02-03 0 17 0 15 690
2017-02-04 0 25 0 70 849
2017-02-05 0 27 1 63 756
2017-02-06 1 19 0 57 1654
2017-02-07 0 14 0 63 1774
2017-02-08 0 16 0 66 915
2017-02-09 3 24 2 66 1349
2017-02-10 1 17 0 51 794
2017-02-11 0 29 0 95 1961
2017-02-12 0 11 0 76 716
2017-02-13 0 16 0 55 1497
2017-02-14 0 20 0 78 829
2017-02-15 1 20 0 65 758
2017-02-16 1 23 1 56 1833
2017-02-17 0 18 0 28 282
2017-02-18 0 29 0 4 269
2017-02-19 0 26 0 10 251
2017-02-20 1 21 0 13 273
2017-02-21 0 20 0 10 315
2017-02-22 1 22 2 61 500
2017-02-23 0 13 1 41 650
2017-02-24 0 20 2 57 868
2017-02-25 1 14 1 65 839
2017-02-26 0 29 2 72 2382
2017-02-27 1 17 4 77 1974
2017-02-28 1 25 2 68 1422
มกราคม 2017 16 610 12 92 42230
* 2016 254 5653 534 175 198775
ธันวาคม 2016 7 629 6 56 19786
2016-12-01 0 15 0 56 917
2016-12-02 0 15 1 38 750
2016-12-03 0 20 0 38 466
2016-12-04 1 27 1 37 447
2016-12-05 0 30 0 50 778
2016-12-06 0 30 0 52 622
2016-12-07 0 15 1 44 543
2016-12-08 0 19 0 48 560
2016-12-09 0 14 0 50 912
2016-12-10 0 11 0 39 485
2016-12-11 0 16 0 42 637
2016-12-12 0 16 0 47 1544
2016-12-13 0 23 0 45 740
2016-12-14 0 29 1 45 631
2016-12-15 3 26 1 40 703
2016-12-16 1 30 0 24 441
2016-12-17 0 28 0 16 793
2016-12-18 0 32 0 15 550
2016-12-19 0 15 0 14 209
2016-12-20 0 18 0 15 426
2016-12-21 0 25 0 25 309
2016-12-22 0 29 0 20 497
2016-12-23 0 21 0 17 1309
2016-12-24 0 23 0 17 475
2016-12-25 0 30 1 53 345
2016-12-26 1 17 0 46 622
2016-12-27 0 19 0 49 649
2016-12-28 0 15 0 50 615
2016-12-29 0 12 0 42 650
2016-12-30 0 5 0 51 577
2016-12-31 1 4 0 52 584
พฤศจิกายน 2016 13 568 10 52 24760
2016-11-01 1 22 0 46 644
2016-11-02 0 15 0 30 4125
2016-11-03 0 34 1 26 2519
2016-11-04 1 33 0 31 660
2016-11-05 0 35 0 37 558
2016-11-06 0 16 1 32 436
2016-11-07 1 37 0 35 594
2016-11-08 0 21 0 47 517
2016-11-09 5 28 1 22 1484
2016-11-10 1 19 1 22 353
2016-11-11 0 17 1 32 702
2016-11-12 0 26 0 42 478
2016-11-13 0 13 0 38 631
2016-11-14 0 13 1 28 368
2016-11-15 0 21 0 45 486
2016-11-16 2 17 0 52 870
2016-11-17 0 17 0 44 557
2016-11-18 0 10 0 42 561
2016-11-19 0 14 0 45 745
2016-11-20 0 11 1 40 1525
2016-11-21 1 13 1 45 902
2016-11-22 0 21 0 38 680
2016-11-23 0 10 1 41 476
2016-11-24 0 15 0 42 636
2016-11-25 0 11 0 50 510
2016-11-26 0 16 0 43 626
2016-11-27 0 14 0 36 516
2016-11-28 0 17 0 42 513
2016-11-29 1 17 1 44 735
2016-11-30 0 15 0 39 353
ตุลาคม 2016 13 601 11 69 20621
กันยายน 2016 9 690 14 54 20567
2016-09-01 1 29 1 53 824
2016-09-02 0 23 0 39 595
2016-09-03 0 24 0 35 1595
2016-09-04 0 28 1 35 541
2016-09-05 0 29 1 49 572
2016-09-06 0 27 1 45 762
2016-09-07 0 25 0 17 417
2016-09-08 0 26 0 17 531
2016-09-09 0 23 0 28 652
2016-09-10 4 28 2 54 891
2016-09-11 0 18 0 39 827
2016-09-12 0 25 0 45 697
2016-09-13 0 25 0 41 1532
2016-09-14 0 35 0 39 717
2016-09-15 0 25 0 40 548
2016-09-16 1 28 1 42 697
2016-09-17 0 16 0 51 628
2016-09-18 0 15 0 30 492
2016-09-19 0 22 0 25 457
2016-09-20 0 23 0 24 418
2016-09-21 0 21 0 25 388
2016-09-22 0 20 0 26 399
2016-09-23 1 21 2 27 1382
2016-09-24 0 16 1 53 719
2016-09-25 0 20 1 51 596
2016-09-26 1 20 0 43 714
2016-09-27 0 20 0 46 473
2016-09-28 1 21 3 34 647
2016-09-29 0 19 0 39 419
2016-09-30 0 18 0 38 437
สิงหาคม 2016 48 673 21 50 21743
กรกฎาคม 2016 72 591 225 175 38662
2016-07-01 0 14 1 33 368
2016-07-02 0 14 0 26 366
2016-07-03 0 10 2 18 257
2016-07-04 0 17 2 17 1351
2016-07-05 0 20 1 21 500
2016-07-06 0 13 2 20 316
2016-07-07 0 18 1 22 251
2016-07-08 0 16 3 28 409
2016-07-09 0 11 1 38 307
2016-07-10 1 14 2 15 369
2016-07-11 0 18 1 22 276
2016-07-12 3 22 0 19 296
2016-07-13 0 20 3 21 412
2016-07-14 0 18 1 23 1323
2016-07-15 0 20 51 175 2630
2016-07-16 1 13 62 152 4015
2016-07-17 5 17 66 133 3796
2016-07-18 3 20 16 83 2094
2016-07-19 2 16 0 65 1154
2016-07-20 11 31 2 107 1963
2016-07-21 0 17 1 57 1423
2016-07-22 2 23 0 61 1249
2016-07-23 5 22 0 70 1338
2016-07-24 1 18 0 82 1743
2016-07-25 3 23 0 102 2629
2016-07-26 5 22 2 51 1436
2016-07-27 7 26 2 54 1008
2016-07-28 5 26 1 29 1687
2016-07-29 8 31 2 34 1860
2016-07-30 6 23 0 20 835
2016-07-31 4 18 0 55 1001
มิถุนายน 2016 7 441 43 32 13927
พฤษภาคม 2016 65 449 46 26 11172
2016-05-01 7 12 0 13 158
2016-05-02 8 15 0 13 161
2016-05-03 7 20 3 14 271
2016-05-04 3 15 0 11 1155
2016-05-05 6 16 0 17 225
2016-05-06 7 19 1 15 362
2016-05-07 8 17 3 15 239
2016-05-08 1 13 3 18 218
2016-05-09 4 16 2 22 301
2016-05-10 0 11 3 16 346
2016-05-11 1 15 1 21 284
2016-05-12 1 17 1 14 240
2016-05-13 1 15 3 17 248
2016-05-14 0 10 1 13 1264
2016-05-15 2 13 2 19 259
2016-05-16 6 23 2 19 313
2016-05-17 1 17 1 23 322
2016-05-18 0 18 1 26 380
2016-05-19 0 16 2 19 382
2016-05-20 0 10 0 14 240
2016-05-21 0 13 2 15 236
2016-05-22 0 10 2 15 200
2016-05-23 0 15 2 23 307
2016-05-24 1 17 1 17 1286
2016-05-25 0 17 2 21 290
2016-05-26 0 12 2 13 186
2016-05-27 1 13 2 14 204
2016-05-28 0 9 1 15 239
2016-05-29 0 9 0 16 257
2016-05-30 0 13 1 19 241
2016-05-31 0 13 2 19 358
เมษายน 2016 5 264 48 19 7599
2016-04-01 0 6 2 15 251
2016-04-02 0 9 3 14 234
2016-04-03 0 7 4 15 192
2016-04-04 0 9 5 15 270
2016-04-05 0 6 2 12 161
2016-04-06 0 10 4 19 301
2016-04-07 0 10 2 18 373
2016-04-08 1 10 3 18 265
2016-04-09 0 8 1 17 202
2016-04-10 0 7 0 13 153
2016-04-11 1 9 2 12 173
2016-04-12 1 7 1 12 164
2016-04-13 0 6 1 12 129
2016-04-14 0 4 1 11 144
2016-04-15 0 3 1 11 188
2016-04-16 0 9 1 14 183
2016-04-17 0 6 0 13 144
2016-04-18 0 13 2 15 202
2016-04-19 1 12 1 14 223
2016-04-20 1 10 1 19 376
2016-04-21 0 11 2 18 427
2016-04-22 0 13 0 14 210
2016-04-23 0 10 1 13 1181
2016-04-24 0 8 0 13 175
2016-04-25 0 10 2 13 197
2016-04-26 0 15 0 12 309
2016-04-27 0 12 3 16 218
2016-04-28 0 11 1 14 228
2016-04-29 0 10 1 11 169
2016-04-30 0 3 1 14 157
มีนาคม 2016 1 269 35 27 7042
กุมภาพันธ์ 2016 6 268 35 29 7327
มกราคม 2016 8 210 40 18 5569
* 2015 35 492 137 43 23860
ธันวาคม 2015 3 149 26 19 5083
พฤศจิกายน 2015 3 107 12 43 3970
ตุลาคม 2015 3 34 13 12 2397
กันยายน 2015 2 33 18 12 1923
2015-09-01 0 1 0 4 25
2015-09-02 0 1 1 4 38
2015-09-03 0 1 0 7 75
2015-09-04 0 1 0 5 36
2015-09-05 0 1 1 4 36
2015-09-06 0 2 0 8 70
2015-09-07 1 2 1 5 76
2015-09-08 0 1 2 3 63
2015-09-09 0 1 1 6 78
2015-09-10 0 1 0 5 42
2015-09-11 0 1 0 4 30
2015-09-12 0 1 1 4 71
2015-09-13 0 2 0 4 75
2015-09-14 0 1 0 6 47
2015-09-15 0 1 0 8 90
2015-09-16 1 2 3 6 103
2015-09-17 0 1 0 9 72
2015-09-18 0 1 0 6 40
2015-09-19 0 0 1 6 102
2015-09-20 0 1 0 9 86
2015-09-21 0 1 1 9 76
2015-09-22 0 1 1 7 72
2015-09-23 0 1 2 7 82
2015-09-24 0 1 0 8 61
2015-09-25 0 1 0 6 35
2015-09-26 0 0 1 12 90
2015-09-27 0 2 1 10 91
2015-09-28 0 1 1 6 54
2015-09-29 0 1 0 11 68
2015-09-30 0 1 0 4 39
สิงหาคม 2015 1 35 13 10 1436
กรกฎาคม 2015 1 33 7 9 1695
มิถุนายน 2015 2 38 12 10 1943
พฤษภาคม 2015 1 30 21 10 1886
2015-05-01 0 0 0 4 16
2015-05-02 0 1 0 5 41
2015-05-03 0 0 0 4 15
2015-05-04 0 2 0 6 58
2015-05-05 0 1 0 5 58
2015-05-06 0 1 0 6 44
2015-05-07 0 0 1 7 67
2015-05-08 0 1 0 7 45
2015-05-09 0 1 0 5 45
2015-05-10 0 1 0 3 169
2015-05-11 0 0 1 9 79
2015-05-12 0 0 1 6 73
2015-05-13 1 2 2 5 42
2015-05-14 0 1 0 6 33
2015-05-15 0 1 3 8 82
2015-05-16 0 1 0 7 42
2015-05-17 0 1 1 5 38
2015-05-18 0 1 1 4 45
2015-05-19 0 1 0 4 46
2015-05-20 0 1 0 6 41
2015-05-21 0 1 2 8 80
2015-05-22 0 1 1 10 137
2015-05-23 0 1 3 7 130
2015-05-24 0 2 1 4 48
2015-05-25 0 1 0 5 27
2015-05-26 0 2 0 5 73
2015-05-27 0 1 2 9 61
2015-05-28 0 1 1 6 45
2015-05-29 0 2 1 6 100
2015-05-30 0 1 0 8 80
2015-05-31 0 0 0 5 26
เมษายน 2015 19 33 15 12 3527

TOP